| time (UTC) | temp F | wind direction | speed knots | gust knots | rain 1hr in | rain 24hr in | rain mn in | humidity % | barometer mb |
| 20260507015058 | 46 | 178 | 2.6 | 7.0 | 0.00 | 0.09 | 0.09 | 84 | 1009.3 |
| 20260507014854 | 46 | 224 | 2.6 | 7.0 | 0.00 | 0.09 | 0.09 | 82 | 1009.5 |
| 20260507005057 | 46 | 209 | 2.6 | 5.2 | 0.00 | 0.09 | 0.09 | 79 | 1009.2 |
| 20260507003500 | 47 | 198 | 1.7 | 6.1 | 0.00 | 0.09 | 0.09 | 77 | 1009.0 |
| 20260506235057 | 48 | 223 | 2.6 | 7.0 | 0.00 | 0.09 | 0.09 | 75 | 1009.0 |
| 20260506233440 | 48 | 252 | 2.6 | 7.0 | 0.00 | 0.09 | 0.09 | 72 | 1008.6 |
| 20260506230511 | 48 | 164 | 2.6 | 7.0 | 0.00 | 0.09 | 0.09 | 71 | 1008.5 |
| 20260506222058 | 49 | 205 | 1.7 | 5.2 | 0.00 | 0.09 | 0.09 | 71 | 1008.5 |
| 20260506220458 | 50 | 169 | 2.6 | 6.1 | 0.00 | 0.09 | 0.09 | 68 | 1008.4 |
| 20260506212054 | 50 | 212 | 1.7 | 7.0 | 0.00 | 0.09 | 0.09 | 67 | 1008.2 |
| 20260506205055 | 51 | 176 | 1.7 | 6.1 | 0.00 | 0.09 | 0.09 | 66 | 1008.2 |
| 20260506202055 | 53 | 139 | 2.6 | 6.1 | 0.00 | 0.09 | 0.09 | 67 | 1008.2 |
| 20260506195054 | 52 | 191 | 1.7 | 5.2 | 0.00 | 0.09 | 0.09 | 69 | 1008.4 |
| 20260506192055 | 50 | 152 | 1.7 | 4.3 | 0.00 | 0.09 | 0.09 | 72 | 1008.5 |
| 20260506185058 | 48 | 161 | 1.7 | 4.3 | 0.00 | 0.09 | 0.09 | 77 | 1008.7 |
| 20260506182055 | 47 | 158 | 0.9 | 2.6 | 0.00 | 0.09 | 0.09 | 80 | 1008.9 |
| 20260506175048 | 46 | 209 | 0.0 | 2.6 | 0.00 | 0.16 | 0.09 | 81 | 1009.1 |
| 20260506172049 | 45 | 264 | 0.0 | 3.5 | 0.00 | 0.16 | 0.09 | 81 | 1009.0 |
| 20260506165046 | 45 | 110 | 0.9 | 4.3 | 0.00 | 0.16 | 0.09 | 83 | 1008.7 |
| 20260506162047 | 44 | 101 | 1.7 | 4.3 | 0.00 | 0.16 | 0.09 | 83 | 1009.0 |
| 20260506160421 | 44 | 86 | 1.7 | 4.3 | 0.00 | 0.16 | 0.09 | 82 | 1009.1 |
| 20260506152046 | 44 | 133 | 0.9 | 2.6 | 0.00 | 0.16 | 0.09 | 82 | 1009.3 |
| 20260506145044 | 43 | 82 | 0.0 | 1.7 | 0.00 | 0.16 | 0.09 | 84 | 1009.4 |
| 20260506142047 | 42 | 82 | 0.9 | 2.6 | 0.01 | 0.16 | 0.09 | 85 | 1009.3 |
| 20260506135042 | 43 | 340 | 0.0 | 1.7 | 0.01 | 0.16 | 0.09 | 87 | 1009.4 |
| 20260506132042 | 42 | 22 | 0.0 | 4.3 | 0.00 | 0.15 | 0.08 | 90 | 1009.1 |
| 20260506130415 | 42 | 162 | 2.6 | 5.2 | 0.00 | 0.15 | 0.08 | 92 | 1009.1 |
| 20260506122044 | 42 | 152 | 2.6 | 5.2 | 0.00 | 0.15 | 0.08 | 92 | 1009.2 |
| 20260506115040 | 42 | 134 | 2.6 | 4.3 | 0.00 | 0.15 | 0.08 | 92 | 1009.2 |
| 20260506112038 | 41 | 165 | 0.0 | 6.1 | 0.00 | 0.15 | 0.08 | 91 | 1009.0 |
| 20260506105039 | 41 | 151 | 2.6 | 5.2 | 0.02 | 0.15 | 0.08 | 92 | 1008.8 |
| 20260506103420 | 41 | 139 | 0.9 | 2.6 | 0.03 | 0.15 | 0.08 | 91 | 1008.8 |
| 20260506095035 | 41 | 147 | 0.0 | 0.0 | 0.03 | 0.13 | 0.06 | 90 | 1009.2 |
| 20260506085031 | 42 | 139 | 1.7 | 4.3 | 0.03 | 0.10 | 0.03 | 89 | 1008.8 |
| 20260506082034 | 43 | 154 | 0.9 | 1.7 | 0.02 | 0.09 | 0.02 | 88 | 1009.3 |
| 20260506080413 | 44 | 233 | 0.9 | 3.5 | 0.00 | 0.07 | 0.00 | 87 | 1009.1 |
| 20260506072028 | 44 | 238 | 0.9 | 3.5 | 0.00 | 0.07 | 0.00 | 86 | 1009.1 |
| 20260506062026 | 44 | 147 | 0.0 | 3.5 | 0.00 | 0.09 | 0.00 | 84 | 1008.8 |
| 20260506045026 | 46 | 199 | 0.9 | 2.6 | 0.00 | 0.09 | 0.00 | 74 | 1009.2 |
| 20260506042026 | 46 | 213 | 0.0 | 1.7 | 0.00 | 0.09 | 0.00 | 67 | 1008.8 |
| 20260506035021 | 47 | 207 | 0.9 | 5.2 | 0.00 | 0.09 | 0.09 | 63 | 1008.8 |
| 20260506032029 | 47 | 167 | 1.7 | 6.1 | 0.00 | 0.09 | 0.09 | 62 | 1008.7 |
| 20260506030358 | 47 | 160 | 0.9 | 3.5 | 0.00 | 0.09 | 0.09 | 62 | 1008.7 |
| 20260506022021 | 48 | 167 | 0.0 | 3.5 | 0.00 | 0.09 | 0.09 | 61 | 1008.3 |